Location: Ash Swamp
(41.5170°N, 74.6157°W)
Time: 01:37:21
(UTC+00:00)

Cosmos 1242 Rocket - Pass Details

Date: 14 July 2020
Orbit: 448 x 487 km, 81.2° (Epoch: 14 August)

Event Time Altitude Azimuth Distance (km) Brightness Sun altitude
Rises 07:59:34 0° 351° (N) 2,463 6.7 -15.0°
Reaches altitude 10° 08:01:38 10° 352° (N) 1,589 5.7 -14.7°
Maximum altitude 08:05:06 83° 80° (E) 462 2.4 -14.3°
Enters shadow 08:08:24 11° 169° (S) 1,516 4.7 -13.9°
